Regional Weather Roundup
Issued by NWS Little Rock, AR

Home | Current Version | Previous Version | Text Only | Print | Product List | Glossary Off
Versions: 1 2 3 4 5 6 7 8 9 10 11 12 13 14 15 16 17 18 19 20 21 22 23 24 25 26 27 28 29 30 31 32 33 34 35 36 37 38 39 40 41 42 43 44 45 46 47 48 49 50

000
ASUS44 KLZK 260005
RWRLZK

WEATHER ROUNDUP FOR ARKANSAS
NATIONAL WEATHER SERVICE LITTLE ROCK AR
700 PM CDT SAT APR 25 2015

NOTE: "FAIR" INDICATES FEW OR NO CLOUDS BELOW 12,000 FEET WITH NO
SIGNIFICANT WEATHER AND/OR OBSTRUCTIONS TO VISIBILITY.

ARZ001-003-010-029-260100-
NORTHWEST ARKANSAS

CITY           SKY/WX    TMP DP  RH WIND       PRES   REMARKS
FAYETTEVILLE   SUNNY     76  53  44 W9        29.60R
6HR MIN TEMP:  74; 6HR MAX TEMP:  78;

FORT SMITH     SUNNY     81  51  35 W12       29.57F
6HR MIN TEMP:  78; 6HR MAX TEMP:  84;

HARRISON       PTCLDY    76  49  38 W10       29.58S
6HR MIN TEMP:  76; 6HR MAX TEMP:  80; 6HR PCP: TRACE;

BENTONVILLE    SUNNY     75  48  38 NW14      29.62R
6HR MIN TEMP:  73; 6HR MAX TEMP:  79;

ROGERS         SUNNY     75  51  43 W12G23    29.61R
6HR MIN TEMP:  73; 6HR MAX TEMP:  78;

SILOAM SPGS    SUNNY     75  50  41 W12       29.62R
6HR MIN TEMP:  75; 6HR MAX TEMP:  79;

HIGHFILL       SUNNY     76  50  40 NW13G21   29.60R
6HR MIN TEMP:  75; 6HR MAX TEMP:  79; 6HR PCP: TRACE;

SPRINGDALE     MOSUNNY   77  50  38 W15G30    29.60F
$$

ARZ004-005-016-260100-
NORTH CENTRAL ARKANSAS

CITY           SKY/WX    TMP DP  RH WIND       PRES   REMARKS
BATESVILLE     CLEAR     79  52  38 SW12      29.53R
6HR MIN TEMP:  79; 6HR MAX TEMP:  82;

FLIPPIN          N/A     79  48  34 W14       29.54R
6HR MIN TEMP:  79; 6HR MAX TEMP:  82;

MTN HOME       PTCLDY    76  49  38 VRB5      29.55R
6HR MIN TEMP:  76; 6HR MAX TEMP:  81;

$$

ARZ040-041-260100-
WEST CENTRAL ARKANSAS

CITY           SKY/WX    TMP DP  RH WIND       PRES   REMARKS
MENA           SUNNY     81  50  34 W7        29.63R
MOUNT IDA      SUNNY     82  49  31 CALM      29.58S
6HR MIN TEMP:  79; 6HR MAX TEMP:  86;

$$

ARZ009-017-025-026-028-260100-
NORTHEAST ARKANSAS

CITY           SKY/WX    TMP DP  RH WIND       PRES   REMARKS
CORNING          N/A     77  54  44 W12G20    29.51R
JONESBORO      CLEAR     76  58  53 SW14      29.51R
6HR MIN TEMP:  72; 6HR MAX TEMP:  78;

NEWPORT        CLEAR     82  54  38 SW13      29.53R
6HR MIN TEMP:  76; 6HR MAX TEMP:  85;

WALNUT RIDGE   CLEAR     79  55  44 SW9       29.51R
6HR MIN TEMP:  77; 6HR MAX TEMP:  82;

BLYTHEVILLE    CLEAR     77  63  61 SW15G21   29.52R
6HR MIN TEMP:  75; 6HR MAX TEMP:  80;

$$

ARZ022-023-033-042-044-260100-
CENTRAL ARKANSAS

CITY           SKY/WX    TMP DP  RH WIND       PRES   REMARKS
LITTLE ROCK    CLEAR     83  49  30 SW10      29.56S
6HR MIN TEMP:  77; 6HR MAX TEMP:  86;

N LITTLE ROCK  CLEAR     81  56  41 SW3       29.56S
6HR MIN TEMP:  77; 6HR MAX TEMP:  84;

JACKSONVILLE   CLEAR     80  59  48 W8        29.56R
6HR MIN TEMP:  78; 6HR MAX TEMP:  85;

SEARCY         CLEAR     81  55  40 W7        29.56R
6HR MIN TEMP:  76; 6HR MAX TEMP:  84;

HOT SPRINGS    CLEAR     80  52  37 SW12      29.59R
6HR MIN TEMP:  79; 6HR MAX TEMP:  85;

RUSSELLVILLE   CLEAR     81  50  33 W8        29.57R
6HR MIN TEMP:  77; 6HR MAX TEMP:  84;

$$

ARZ036-260100-
EAST ARKANSAS

CITY           SKY/WX    TMP DP  RH WIND       PRES   REMARKS
WEST MEMPHIS   CLEAR     77  63  61 SW9       29.53F
6HR MIN TEMP:  74; 6HR MAX TEMP:  80;

$$

ARZ050-053-066-070-073-260100-
SOUTHWEST ARKANSAS

CITY           SKY/WX    TMP DP  RH WIND       PRES   REMARKS
ARKADELPHIA    FAIR      83  62  48 SW7       29.60S
6HR MIN TEMP:  78; 6HR MAX TEMP:  85;

CAMDEN         CLEAR     82  48  30 CALM      29.61R
TEXARKANA      SUNNY     82  54  37 SW10      29.62R
6HR MIN TEMP:  82; 6HR MAX TEMP:  86;

EL DORADO      CLEAR     82  53  36 SW5       29.62S
6HR MIN TEMP:  81; 6HR MAX TEMP:  87;

DE QUEEN       SUNNY     79  54  41 W9        29.60S
6HR MIN TEMP:  79; 6HR MAX TEMP:  83;

$$

ARZ056-057-069-260100-
SOUTHEAST ARKANSAS

CITY           SKY/WX    TMP DP  RH WIND       PRES   REMARKS
PINE BLUFF     CLEAR     81  53  37 SW10      29.59R
6HR MIN TEMP:  75; 6HR MAX TEMP:  85;

STUTTGART      CLEAR     81  61  50 SW10      29.57S
6HR MIN TEMP:  75; 6HR MAX TEMP:  84;

MONTICELLO     CLEAR     83  55  38 W7        29.60R
6HR MIN TEMP:  80; 6HR MAX TEMP:  86;


$$





USA.gov is the U.S. government's official web portal to all federal, state and local government web resources and services.